This is the latest recevied weather packets stored in our database for station/object KI6PPU. If no packets are shown the sender has not sent any weather packets the latest 10 day(s).
| Time | Temp. | Humidity | Pressure | Rain* | Wind** | Luminosity | Snow |
|---|---|---|---|---|---|---|---|
| 1778140880 | 11.11° C | 97% | 1021.4 hPa | 0 mm | - | 0 W/m² | - |
| 1778140575 | 11.11° C | 96% | 1021.3 hPa | 0 mm | - | 0 W/m² | - |
| 1778140271 | 11.11° C | 96% | 1021.3 hPa | 0 mm | - | 0 W/m² | - |
| 1778139968 | 11.67° C | 97% | 1021.4 hPa | 0 mm | - | 0 W/m² | - |
| 1778139667 | 11.67° C | 96% | 1021.3 hPa | 0 mm | - | 0 W/m² | - |
| 1778139362 | 11.11° C | 96% | 1021.4 hPa | 0 mm | - | 0 W/m² | - |
| 1778139059 | 11.67° C | 96% | 1021.3 hPa | 0 mm | - | 0 W/m² | - |
| 1778138756 | 11.11° C | 96% | 1021.4 hPa | 0 mm | - | 0 W/m² | - |
| 1778138454 | 11.67° C | 96% | 1021.3 hPa | 0 mm | - | 0 W/m² | - |
| 1778138151 | 11.67° C | 96% | 1021.6 hPa | 0 mm | - | 0 W/m² | - |
| 1778137847 | 11.67° C | 96% | 1021.4 hPa | 0 mm | - | 0 W/m² | - |
| 1778137544 | 11.67° C | 96% | 1021.4 hPa | 0 mm | - | 0 W/m² | - |
| 1778137241 | 11.67° C | 96% | 1021.7 hPa | 0 mm | - | 0 W/m² | - |
| 1778136938 | 11.67° C | 96% | 1021.4 hPa | 0 mm | - | 0 W/m² | - |
| 1778136635 | 12.22° C | 96% | 1021.5 hPa | 0 mm | - | 0 W/m² | - |
| 1778136333 | 11.67° C | 95% | 1021.4 hPa | 0 mm | - | 0 W/m² | - |
| 1778136031 | 12.22° C | 95% | 1021.6 hPa | 0 mm | - | 0 W/m² | - |
| 1778135728 | 12.22° C | 95% | 1021.4 hPa | 0 mm | - | 0 W/m² | - |
| 1778135425 | 12.22° C | 95% | 1021.1 hPa | 0 mm | - | 0 W/m² | - |
| 1778135122 | 12.78° C | 95% | 1021.3 hPa | 0 mm | - | 0 W/m² | - |
| 1778134820 | 12.22° C | 95% | 1021.7 hPa | 0 mm | - | 0 W/m² | - |
| 1778134517 | 12.22° C | 94% | 1021.4 hPa | 0 mm | - | 0 W/m² | - |
| 1778134215 | 12.78° C | 94% | 1021.5 hPa | 0 mm | - | 0 W/m² | - |
| 1778133912 | 12.78° C | 94% | 1021.4 hPa | 0 mm | - | 0 W/m² | - |
| 1778133609 | 12.78° C | 95% | 1021.5 hPa | 0 mm | - | 0 W/m² | - |
* Rain latest hour (hover to see other rain measurements)
** Current wind speed in m/s (hover to see current wind gust speed)